• In Uzbekistan
  • List of Countries
  • For 7 days
  • Water Temperature
  • Satellite Maps
  • Weather Map
  • Weather Widgets
  • user-avatar
    Login

    Hourly Weather Linz

    Today, 22 August, Tuesday

    Time Temperature Precipitation Wind Pressure Humidity
    00:00 +12°C° 0 mm 1 mps 739 mmHg 86%
    01:00 +12°C° 0 mm 1 mps 738 mmHg 85%
    02:00 +12°C° 0 mm 1 mps 738 mmHg 86%
    03:00 +11°C° 0 mm 1 mps 738 mmHg 87%
    04:00 +11°C° 0 mm 1 mps 738 mmHg 88%
    05:00 +12°C° 0 mm 1 mps 738 mmHg 85%
    06:00 +13°C° 0 mm 1 mps 738 mmHg 82%
    07:00 +14°C° 0 mm 0 mps 738 mmHg 77%
    08:00 +16°C° 0 mm 1 mps 738 mmHg 69%
    09:00 +19°C° 0 mm 1 mps 738 mmHg 62%
    10:00 +21°C° 0 mm 1 mps 738 mmHg 55%
    11:00 +22°C° 0 mm 1 mps 737 mmHg 53%
    12:00 +21°C° 0 mm 2 mps 737 mmHg 50%
    13:00 +23°C° 0 mm 2 mps 736 mmHg 48%
    14:00 +23°C° 0 mm 2 mps 736 mmHg 50%
    15:00 +23°C° 0 mm 2 mps 736 mmHg 51%
    16:00 +21°C° 0 mm 2 mps 736 mmHg 53%
    17:00 +20°C° 0 mm 2 mps 736 mmHg 60%
    18:00 +19°C° 0 mm 1 mps 735 mmHg 68%
    19:00 +16°C° 0 mm 1 mps 735 mmHg 76%
    20:00 +16°C° 0 mm 1 mps 736 mmHg 77%
    21:00 +15°C° 0 mm 1 mps 736 mmHg 79%
    22:00 +14°C° 0 mm 1 mps 736 mmHg 81%
    23:00 +14°C° 0 mm 1 mps 736 mmHg 83%

    Tomorrow, 23 August, Wednesday

    Time Temperature Precipitation Wind Pressure Humidity
    00:00 +13°C° 0 mm 1 mps 736 mmHg 85%
    01:00 +13°C° 0 mm 1 mps 736 mmHg 87%
    02:00 +13°C° 0 mm 1 mps 736 mmHg 88%
    03:00 +12°C° 0 mm 1 mps 736 mmHg 90%
    04:00 +12°C° 0 mm 1 mps 736 mmHg 91%
    05:00 +13°C° 0 mm 1 mps 736 mmHg 88%
    06:00 +14°C° 0 mm 1 mps 736 mmHg 84%
    07:00 +14°C° 0 mm 0 mps 736 mmHg 81%
    08:00 +16°C° 0 mm 0 mps 736 mmHg 73%
    09:00 +21°C° 0 mm 1 mps 736 mmHg 65%
    10:00 +23°C° 0 mm 1 mps 736 mmHg 57%
    11:00 +24°C° 0 mm 1 mps 736 mmHg 54%
    12:00 +25°C° 0 mm 1 mps 736 mmHg 50%
    13:00 +26°C° 0 mm 1 mps 736 mmHg 47%
    14:00 +26°C° 0 mm 1 mps 735 mmHg 49%
    15:00 +26°C° 0 mm 1 mps 735 mmHg 50%
    16:00 +26°C° 0 mm 1 mps 735 mmHg 51%
    17:00 +23°C° 0 mm 1 mps 735 mmHg 60%
    18:00 +19°C° 0 mm 0 mps 735 mmHg 69%
    19:00 +17°C° 0 mm 0 mps 735 mmHg 77%
    20:00 +16°C° 0 mm 0 mps 735 mmHg 79%
    21:00 +18°C° 0 mm 1 mps 735 mmHg 81%
    22:00 +16°C° 0 mm 1 mps 735 mmHg 83%
    23:00 +16°C° 0 mm 1 mps 735 mmHg 84%

    Day after tomorrow, 24 August, Thursday

    Time Temperature Precipitation Wind Pressure Humidity
    00:00 +15°C° 0 mm 1 mps 735 mmHg 85%
    01:00 +15°C° 0 mm 1 mps 735 mmHg 86%
    02:00 +15°C° 0 mm 1 mps 735 mmHg 86%
    03:00 +15°C° 0 mm 1 mps 735 mmHg 87%
    04:00 +15°C° 0 mm 1 mps 735 mmHg 87%
    05:00 +16°C° 0 mm 1 mps 735 mmHg 84%
    06:00 +18°C° 0 mm 1 mps 735 mmHg 81%
    07:00 +19°C° 0 mm 1 mps 735 mmHg 78%
    08:00 +22°C° 0.1 mm 1 mps 735 mmHg 72%
    09:00 +24°C° 0.1 mm 1 mps 735 mmHg 65%
    10:00 +26°C° 0.1 mm 1 mps 736 mmHg 58%
    11:00 +27°C° 0 mm 2 mps 735 mmHg 57%
    12:00 +28°C° 0 mm 2 mps 735 mmHg 55%
    13:00 +29°C° 0 mm 3 mps 735 mmHg 53%
    14:00 +29°C° 0 mm 2 mps 735 mmHg 54%
    15:00 +29°C° 0 mm 2 mps 735 mmHg 56%
    16:00 +29°C° 0 mm 2 mps 734 mmHg 58%
    17:00 +27°C° 0.2 mm 2 mps 734 mmHg 67%
    18:00 +25°C° 0.2 mm 1 mps 735 mmHg 77%
    19:00 +23°C° 0.2 mm 1 mps 735 mmHg 86%
    20:00 +22°C° 0.4 mm 1 mps 735 mmHg 88%
    21:00 +22°C° 0.4 mm 1 mps 735 mmHg 89%
    22:00 +21°C° 0.4 mm 2 mps 736 mmHg 90%
    23:00 +20°C° 0 mm 2 mps 736 mmHg 90%

    25 August, Friday

    Time Temperature Precipitation Wind Pressure Humidity
    00:00 +21°C° 0 mm 1 mps 736 mmHg 90%
    01:00 +20°C° 0 mm 1 mps 736 mmHg 90%
    02:00 +20°C° 0 mm 1 mps 736 mmHg 90%
    03:00 +19°C° 0 mm 1 mps 735 mmHg 90%
    04:00 +19°C° 0 mm 1 mps 735 mmHg 90%
    05:00 +19°C° 0 mm 1 mps 735 mmHg 88%
    06:00 +20°C° 0 mm 1 mps 736 mmHg 86%
    07:00 +21°C° 0 mm 1 mps 736 mmHg 84%
    08:00 +23°C° 0 mm 1 mps 736 mmHg 75%
    09:00 +26°C° 0 mm 1 mps 736 mmHg 65%
    10:00 +28°C° 0 mm 1 mps 736 mmHg 56%
    11:00 +29°C° 0 mm 1 mps 736 mmHg 52%
    12:00 +30°C° 0 mm 1 mps 736 mmHg 49%
    13:00 +31°C° 0 mm 1 mps 735 mmHg 45%
    14:00 +31°C° 0 mm 1 mps 735 mmHg 47%
    15:00 +31°C° 0 mm 1 mps 735 mmHg 48%
    16:00 +30°C° 0 mm 1 mps 735 mmHg 50%
    17:00 +28°C° 0 mm 1 mps 735 mmHg 58%
    18:00 +26°C° 0 mm 1 mps 735 mmHg 66%
    19:00 +22°C° 0 mm 0 mps 735 mmHg 74%
    20:00 +21°C° 0 mm 0 mps 735 mmHg 75%
    21:00 +23°C° 0 mm 1 mps 735 mmHg 76%
    22:00 +22°C° 0 mm 1 mps 735 mmHg 77%
    23:00 +22°C° 0 mm 1 mps 735 mmHg 79%

    26 August, Saturday

    Time Temperature Precipitation Wind Pressure Humidity
    00:00 +21°C° 0 mm 1 mps 735 mmHg 80%
    01:00 +21°C° 0 mm 1 mps 735 mmHg 82%
    02:00 +20°C° 0 mm 1 mps 735 mmHg 82%
    03:00 +20°C° 0 mm 1 mps 735 mmHg 83%
    04:00 +20°C° 0 mm 1 mps 735 mmHg 84%
    05:00 +21°C° 0 mm 1 mps 735 mmHg 81%
    06:00 +22°C° 0 mm 1 mps 735 mmHg 79%
    07:00 +22°C° 0 mm 1 mps 735 mmHg 77%
    08:00 +25°C° 0 mm 1 mps 735 mmHg 70%
    09:00 +27°C° 0 mm 1 mps 735 mmHg 62%
    10:00 +29°C° 0 mm 1 mps 735 mmHg 54%
    11:00 +30°C° 0 mm 1 mps 735 mmHg 53%
    12:00 +31°C° 0 mm 1 mps 735 mmHg 51%
    13:00 +32°C° 0 mm 1 mps 734 mmHg 49%
    14:00 +32°C° 0 mm 1 mps 734 mmHg 50%
    15:00 +32°C° 0 mm 1 mps 734 mmHg 51%
    16:00 +32°C° 0 mm 1 mps 734 mmHg 51%
    17:00 +29°C° 0 mm 1 mps 734 mmHg 60%
    18:00 +27°C° 0 mm 1 mps 734 mmHg 68%
    19:00 +23°C° 0 mm 0 mps 734 mmHg 76%
    20:00 +22°C° 0 mm 0 mps 734 mmHg 77%
    21:00 +23°C° 0 mm 1 mps 734 mmHg 77%
    22:00 +23°C° 0 mm 1 mps 734 mmHg 78%
    23:00 +22°C° 0 mm 1 mps 734 mmHg 78%

    27 August, Sunday

    Time Temperature Precipitation Wind Pressure Humidity
    00:00 +22°C° 0 mm 1 mps 734 mmHg 78%
    01:00 +22°C° 0 mm 1 mps 734 mmHg 78%
    02:00 +21°C° 0 mm 1 mps 734 mmHg 78%
    03:00 +21°C° 0 mm 1 mps 734 mmHg 77%
    04:00 +21°C° 0 mm 1 mps 733 mmHg 77%
    05:00 +22°C° 0 mm 1 mps 734 mmHg 75%
    06:00 +23°C° 0 mm 1 mps 734 mmHg 73%
    07:00 +24°C° 0 mm 1 mps 734 mmHg 72%
    08:00 +26°C° 0 mm 1 mps 734 mmHg 65%
    09:00 +28°C° 0 mm 1 mps 734 mmHg 58%
    10:00 +30°C° 0 mm 1 mps 734 mmHg 52%
    11:00 +31°C° 0 mm 1 mps 734 mmHg 50%
    12:00 +32°C° 0 mm 1 mps 733 mmHg 49%
    13:00 +34°C° 0 mm 2 mps 733 mmHg 47%
    14:00 +32°C° 0 mm 2 mps 733 mmHg 49%
    15:00 +32°C° 0 mm 2 mps 733 mmHg 52%
    16:00 +32°C° 0 mm 2 mps 732 mmHg 54%
    17:00 +29°C° 0 mm 2 mps 732 mmHg 62%
    18:00 +27°C° 0 mm 1 mps 733 mmHg 69%
    19:00 +25°C° 0 mm 1 mps 733 mmHg 77%
    20:00 +25°C° 0 mm 1 mps 733 mmHg 78%
    21:00 +24°C° 0 mm 1 mps 733 mmHg 79%
    22:00 +23°C° 0 mm 1 mps 733 mmHg 80%
    23:00 +23°C° 0 mm 1 mps 733 mmHg 80%
    Show more